Madison, SD

12:58 AM CDT on April 24, 2018 (GMT -0500)
Madison Municipal

Weather History for KMDS - January, 2013

Change the Weather History Date:

Thursday, January 3, 2013

  Actual Average Record
Temperature  
Mean Temperature 12 °F -  
Max Temperature 19 °F 23 °F 39 °F (2012)
Min Temperature 5 °F 2 °F -4 °F (2017)
Degree Days  
Heating Degree Days 53    
Moisture  
Dew Point 14 °F    
Average Humidity 100    
Maximum Humidity 100    
Minimum Humidity 92    
Precipitation  
Precipitation 0.08 in - - ()
Sea Level Pressure  
Sea Level Pressure 30.22 in    
Wind  
Wind Speed 15 mph (West)    
Max Wind Speed 22 mph    
Max Gust Speed 26 mph    
Visibility 10 miles    
Events Snow    
Averages and records for this station are not official NWS values.
T = Trace of Precipitation, MM = Missing Value Source: NWS Daily Summary

Daily Weather History Graph

Daily Weather History Graph

Search for Another Location

Airport or City:

Astronomy

Jan. 03, 2013 Rise Set
Actual Time 8:03 AM CST 5:03 PM CST
Civil Twilight 7:30 AM CST 5:35 PM CST
Nautical Twilight 6:54 AM CST 6:12 PM CST
Astronomical Twilight 6:19 AM CST 6:47 PM CST
Moon 11:55 PM CST (1/3) 11:01 AM CST (1/3)
Length of Visible Light 10h 05m
Length of Day
8h 59m
Waning Gibbous, 65% of the Moon is Illuminated
Jan 3
Waning Gibbous
Jan 4
Last Quarter
Jan 11
New
Jan 18
First Quarter
Jan 26
Full

Hourly Weather History & Observations

Time (CST) Temp. Windchill Dew Point Humidity Pressure Visibility Wind Dir Wind Speed Gust Speed Precip Events Conditions
12:00 AM 15.8 °F -1.1 °F 15.8 °F 100% 30.19 in 10.0 mi NNW 19.6 mph 26.5 mph N/A   Overcast
12:20 AM 14.0 °F -4.3 °F 12.2 °F 93% 30.20 in 10.0 mi NNW 21.9 mph 26.5 mph N/A   Scattered Clouds
12:40 AM 10.4 °F -7.7 °F 10.4 °F 100% 30.21 in 10.0 mi NNW 18.4 mph 25.3 mph N/A   Clear
1:00 AM 10.4 °F -6.6 °F 8.6 °F 92% 30.21 in 10.0 mi NNW 16.1 mph - N/A   Clear
1:40 AM 8.6 °F -8.9 °F 8.6 °F 100% 30.21 in 10.0 mi NW 16.1 mph - N/A   Clear
2:00 AM 8.6 °F -10.0 °F 8.6 °F 100% 30.22 in 10.0 mi NW 18.4 mph - N/A   Scattered Clouds
2:20 AM 6.8 °F -10.0 °F 6.8 °F 100% 30.22 in 10.0 mi NW 13.8 mph - N/A   Scattered Clouds
2:40 AM 6.8 °F -12.4 °F 6.8 °F 100% 30.23 in 10.0 mi NNW 18.4 mph - N/A   Clear
3:00 AM 6.8 °F -11.3 °F 6.8 °F 100% 30.24 in 10.0 mi NNW 16.1 mph - N/A   Clear
3:20 AM 6.8 °F -11.8 °F 6.8 °F 100% 30.24 in 10.0 mi NNW 17.3 mph - N/A   Partly Cloudy
3:40 AM 6.8 °F -11.3 °F 6.8 °F 100% 30.24 in 10.0 mi NW 16.1 mph - N/A   Partly Cloudy
4:00 AM 6.8 °F -11.8 °F 6.8 °F 100% 30.23 in 10.0 mi NW 17.3 mph - N/A   Mostly Cloudy
4:20 AM 6.8 °F -12.4 °F 6.8 °F 100% 30.23 in 10.0 mi NW 18.4 mph - N/A   Partly Cloudy
4:40 AM 6.8 °F -12.4 °F 6.8 °F 100% 30.23 in 10.0 mi NNW 18.4 mph - N/A   Clear
5:00 AM 5.0 °F -14.2 °F 5.0 °F 100% 30.24 in 10.0 mi NNW 17.3 mph - N/A   Clear
5:20 AM 5.0 °F -14.2 °F 5.0 °F 100% 30.25 in 10.0 mi NNW 17.3 mph - N/A   Clear
5:40 AM 5.0 °F -15.2 °F 5.0 °F 100% 30.26 in 10.0 mi NW 19.6 mph - N/A   Clear
6:00 AM 5.0 °F -14.7 °F 5.0 °F 100% 30.26 in 10.0 mi NNW 18.4 mph - N/A   Clear
6:20 AM 5.0 °F -13.0 °F 5.0 °F 100% 30.26 in 10.0 mi NNW 15.0 mph - N/A   Clear
6:40 AM 6.8 °F -11.3 °F 6.8 °F 100% 30.27 in 10.0 mi NNW 16.1 mph - N/A   Scattered Clouds
7:00 AM 8.6 °F -7.7 °F 8.6 °F 100% 30.27 in 10.0 mi NNW 13.8 mph - N/A Snow Light Snow
7:20 AM 8.6 °F -4.7 °F 8.6 °F 100% 30.27 in 10.0 mi NNW 9.2 mph - N/A Snow Light Snow
7:40 AM 10.4 °F -3.3 °F 10.4 °F 100% 30.27 in 10.0 mi NW 10.4 mph - N/A   Overcast
8:00 AM 10.4 °F -3.3 °F 10.4 °F 100% 30.27 in 10.0 mi NW 10.4 mph - N/A Snow Light Snow
8:20 AM 10.4 °F -2.4 °F 10.4 °F 100% 30.28 in 10.0 mi NW 9.2 mph - N/A Snow Light Snow
8:40 AM 12.2 °F -0.2 °F 12.2 °F 100% 30.28 in 10.0 mi NW 9.2 mph - N/A Snow Light Snow
9:00 AM 12.2 °F 0.7 °F 12.2 °F 100% 30.27 in 10.0 mi WNW 8.1 mph - 0.02 in Snow Light Snow
9:20 AM 14.0 °F -2.0 °F 14.0 °F 100% 30.28 in 10.0 mi NNW 16.1 mph - 0.01 in Snow Light Snow
9:40 AM 14.0 °F -0.8 °F 14.0 °F 100% 30.29 in 10.0 mi NW 13.8 mph - 0.03 in Snow Light Snow
10:00 AM 14.0 °F -1.4 °F 14.0 °F 100% 30.30 in 10.0 mi NNW 15.0 mph 21.9 mph 0.04 in Snow Light Snow
10:20 AM 15.8 °F 3.4 °F 15.8 °F 100% 30.30 in 10.0 mi NW 10.4 mph - 0.01 in Snow Light Snow
10:40 AM 15.8 °F 3.4 °F 15.8 °F 100% 30.30 in 10.0 mi NW 10.4 mph - 0.01 in Snow Light Snow
11:00 AM 15.8 °F 6.1 °F 15.8 °F 100% 30.30 in 10.0 mi WNW 6.9 mph - 0.01 in   Mostly Cloudy
11:20 AM 15.8 °F 5.1 °F 15.8 °F 100% 30.28 in 10.0 mi West 8.1 mph - N/A Snow Light Snow
11:40 AM 15.8 °F 4.2 °F 15.8 °F 100% 30.26 in 10.0 mi WSW 9.2 mph - N/A Snow Light Snow
12:00 PM 15.8 °F 2.7 °F 15.8 °F 100% 30.25 in 10.0 mi WSW 11.5 mph - N/A   Overcast
12:20 PM 15.8 °F 3.4 °F 15.8 °F 100% 30.25 in 10.0 mi WSW 10.4 mph - N/A   Overcast
12:40 PM 15.8 °F 1.4 °F 15.8 °F 100% 30.24 in 10.0 mi WSW 13.8 mph - N/A   Overcast
1:00 PM 15.8 °F 1.4 °F 15.8 °F 100% 30.23 in 10.0 mi SW 13.8 mph - N/A   Mostly Cloudy
1:20 PM 17.6 °F 3.7 °F 17.6 °F 100% 30.22 in 10.0 mi SW 13.8 mph 17.3 mph N/A   Mostly Cloudy
1:40 PM 17.6 °F 4.3 °F 17.6 °F 100% 30.22 in 10.0 mi WSW 12.7 mph 18.4 mph N/A   Overcast
2:00 PM 17.6 °F 4.3 °F 17.6 °F 100% 30.22 in 10.0 mi WSW 12.7 mph 18.4 mph N/A   Overcast
2:20 PM 17.6 °F 5.0 °F 17.6 °F 100% 30.22 in 10.0 mi WSW 11.5 mph - N/A   Overcast
2:40 PM 19.4 °F 7.2 °F 19.4 °F 100% 30.22 in 10.0 mi WSW 11.5 mph - N/A   Scattered Clouds
3:00 PM 19.4 °F 7.2 °F 19.4 °F 100% 30.22 in 10.0 mi WSW 11.5 mph - N/A   Scattered Clouds
3:20 PM 19.4 °F 6.6 °F 19.4 °F 100% 30.23 in 10.0 mi West 12.7 mph - N/A   Mostly Cloudy
3:40 PM 19.4 °F 8.6 °F 19.4 °F 100% 30.23 in 10.0 mi West 9.2 mph - N/A   Overcast
4:00 PM 19.4 °F 9.5 °F 19.4 °F 100% 30.22 in 10.0 mi WSW 8.1 mph - N/A   Overcast
4:20 PM 19.4 °F 8.6 °F 19.4 °F 100% 30.21 in 10.0 mi WSW 9.2 mph - N/A   Partly Cloudy
4:40 PM 19.4 °F 8.6 °F 19.4 °F 100% 30.21 in 10.0 mi WSW 9.2 mph - N/A   Clear
5:00 PM 17.6 °F 6.4 °F 17.6 °F 100% 30.20 in 10.0 mi WSW 9.2 mph - N/A   Clear
5:20 PM 17.6 °F 6.4 °F 17.6 °F 100% 30.21 in 10.0 mi WSW 9.2 mph - N/A   Clear
5:40 PM 17.6 °F 6.4 °F 17.6 °F 100% 30.20 in 10.0 mi WSW 9.2 mph - N/A   Clear
6:00 PM 15.8 °F 3.4 °F 15.8 °F 100% 30.20 in 10.0 mi WSW 10.4 mph - N/A   Clear
6:20 PM 15.8 °F 3.4 °F 15.8 °F 100% 30.21 in 10.0 mi WSW 10.4 mph - N/A   Clear
6:40 PM 15.8 °F 2.1 °F 15.8 °F 100% 30.20 in 10.0 mi SW 12.7 mph - N/A   Clear
7:00 PM 15.8 °F 2.1 °F 15.8 °F 100% 30.19 in 10.0 mi WSW 12.7 mph - N/A   Clear
7:20 PM 15.8 °F 2.1 °F 15.8 °F 100% 30.19 in 10.0 mi SW 12.7 mph - N/A   Clear
7:40 PM 15.8 °F 2.1 °F 15.8 °F 100% 30.18 in 10.0 mi SW 12.7 mph 18.4 mph N/A   Clear
8:00 PM 15.8 °F 0.9 °F 15.8 °F 100% 30.17 in 10.0 mi WSW 15.0 mph - N/A   Clear
8:20 PM 15.8 °F 0.3 °F 15.8 °F 100% 30.17 in 10.0 mi WSW 16.1 mph - N/A   Clear
8:40 PM 15.8 °F 0.3 °F 15.8 °F 100% 30.16 in 10.0 mi SW 16.1 mph 23.0 mph N/A   Clear
9:00 PM 17.6 °F 3.2 °F 17.6 °F 100% 30.14 in 10.0 mi SW 15.0 mph - N/A   Clear
9:20 PM 17.6 °F 2.7 °F 17.6 °F 100% 30.14 in 10.0 mi WSW 16.1 mph 21.9 mph N/A   Clear
9:40 PM 17.6 °F 4.3 °F 17.6 °F 100% 30.13 in 10.0 mi WSW 12.7 mph - N/A   Clear
10:00 PM 17.6 °F 4.3 °F 17.6 °F 100% 30.13 in 10.0 mi WSW 12.7 mph - N/A   Clear
10:20 PM 17.6 °F 3.7 °F 17.6 °F 100% 30.12 in 10.0 mi WSW 13.8 mph - N/A   Clear
10:40 PM 17.6 °F 2.2 °F 17.6 °F 100% 30.12 in 10.0 mi WSW 17.3 mph 23.0 mph N/A   Clear
11:00 PM 17.6 °F 2.7 °F 17.6 °F 100% 30.12 in 10.0 mi WSW 16.1 mph 23.0 mph N/A   Clear
11:20 PM 19.4 °F 5.5 °F 17.6 °F 93% 30.12 in 10.0 mi WSW 15.0 mph 21.9 mph N/A   Clear
11:40 PM 17.6 °F 3.2 °F 17.6 °F 100% 30.11 in 10.0 mi WSW 15.0 mph 21.9 mph N/A   Clear